| time (UTC) | temp F | wind direction | speed MPH | gust MPH | rain 1hr in | rain 24hr in | rain mn in | humidity % | barometer mb |
| 20260503050020 | 39 | 192 | 1.0 | 5.0 | 0.00 | 0.00 | 0.00 | 61 | 1014.4 |
| 20260503045503 | 39 | 165 | 1.0 | 5.0 | 0.00 | 0.00 | 0.00 | 60 | 1014.4 |
| 20260503045007 | 39 | 184 | 2.0 | 5.0 | 0.00 | 0.00 | 0.00 | 61 | 1014.5 |
| 20260503044534 | 39 | 205 | 2.0 | 5.0 | 0.00 | 0.00 | 0.00 | 61 | 1014.5 |
| 20260503044007 | 39 | 168 | 2.0 | 4.0 | 0.00 | 0.00 | 0.00 | 62 | 1014.6 |
| 20260503043503 | 39 | 193 | 2.0 | 4.0 | 0.00 | 0.00 | 0.00 | 62 | 1014.6 |
| 20260503043011 | 39 | 184 | 2.0 | 4.0 | 0.00 | 0.00 | 0.00 | 62 | 1014.7 |
| 20260503042503 | 39 | 194 | 1.0 | 4.0 | 0.00 | 0.00 | 0.00 | 61 | 1014.7 |
| 20260503042003 | 39 | 195 | 2.0 | 6.0 | 0.00 | 0.00 | 0.00 | 60 | 1014.8 |
| 20260503041512 | 39 | 188 | 3.0 | 6.0 | 0.00 | 0.00 | 0.00 | 61 | 1014.8 |
| 20260503041003 | 39 | 202 | 2.0 | 5.0 | 0.00 | 0.00 | 0.00 | 62 | 1014.9 |
| 20260503040506 | 39 | 223 | 3.0 | 5.0 | 0.00 | 0.00 | 0.00 | 61 | 1014.9 |
| 20260503040011 | 39 | 215 | 2.0 | 4.0 | 0.00 | 0.00 | 0.00 | 61 | 1015.0 |
| 20260503035506 | 39 | 187 | 2.0 | 3.0 | 0.00 | 0.00 | 0.00 | 61 | 1015.0 |
| 20260503035009 | 39 | 194 | 2.0 | 5.0 | 0.00 | 0.00 | 0.00 | 61 | 1015.1 |
| 20260503034509 | 40 | 184 | 1.0 | 5.0 | 0.00 | 0.00 | 0.00 | 61 | 1015.1 |
| 20260503034004 | 40 | 192 | 2.0 | 5.0 | 0.00 | 0.00 | 0.00 | 61 | 1015.2 |
| 20260503033023 | 39 | 171 | 1.0 | 4.0 | 0.00 | 0.00 | 0.00 | 62 | 1015.2 |
| 20260503032503 | 39 | 175 | 2.0 | 4.0 | 0.00 | 0.00 | 0.00 | 61 | 1015.3 |
| 20260503032004 | 39 | 189 | 1.0 | 3.0 | 0.00 | 0.00 | 0.00 | 61 | 1015.3 |
| 20260503031510 | 39 | 207 | 1.0 | 5.0 | 0.00 | 0.00 | 0.00 | 61 | 1015.3 |
| 20260503031004 | 39 | 202 | 2.0 | 5.0 | 0.00 | 0.00 | 0.00 | 62 | 1015.3 |
| 20260503030504 | 39 | 176 | 3.0 | 5.0 | 0.00 | 0.00 | 0.00 | 62 | 1015.3 |
| 20260503030018 | 39 | 182 | 2.0 | 4.0 | 0.00 | 0.00 | 0.00 | 61 | 1015.4 |
| 20260503025503 | 39 | 194 | 1.0 | 3.0 | 0.00 | 0.00 | 0.00 | 61 | 1015.4 |
| 20260503025003 | 40 | 196 | 0.0 | 2.0 | 0.00 | 0.00 | 0.00 | 60 | 1015.4 |
| 20260503024518 | 40 | 191 | 1.0 | 4.0 | 0.00 | 0.00 | 0.00 | 60 | 1015.5 |
| 20260503024006 | 40 | 191 | 1.0 | 4.0 | 0.00 | 0.00 | 0.00 | 60 | 1015.5 |
| 20260503023507 | 40 | 227 | 2.0 | 4.0 | 0.00 | 0.00 | 0.00 | 59 | 1015.6 |
| 20260503023013 | 40 | 216 | 1.0 | 4.0 | 0.00 | 0.00 | 0.00 | 62 | 1015.6 |
| 20260503022010 | 39 | 209 | 2.0 | 3.0 | 0.00 | 0.00 | 0.00 | 61 | 1015.7 |
| 20260503021512 | 39 | 211 | 1.0 | 3.0 | 0.00 | 0.00 | 0.00 | 61 | 1015.7 |
| 20260503021002 | 39 | 206 | 1.0 | 3.0 | 0.00 | 0.00 | 0.00 | 61 | 1015.6 |
| 20260503020504 | 40 | 203 | 1.0 | 3.0 | 0.00 | 0.00 | 0.00 | 60 | 1015.7 |
| 20260503020014 | 40 | 207 | 1.0 | 4.0 | 0.00 | 0.00 | 0.00 | 59 | 1015.7 |
| 20260503015505 | 41 | 216 | 1.0 | 4.0 | 0.00 | 0.00 | 0.00 | 58 | 1015.6 |
| 20260503015003 | 41 | 236 | 1.0 | 3.0 | 0.00 | 0.00 | 0.00 | 58 | 1015.6 |
| 20260503014519 | 41 | 240 | 1.0 | 4.0 | 0.00 | 0.00 | 0.00 | 58 | 1015.6 |
| 20260503014006 | 41 | 244 | 2.0 | 4.0 | 0.00 | 0.00 | 0.00 | 59 | 1015.6 |
| 20260503013503 | 42 | 223 | 2.0 | 5.0 | 0.00 | 0.00 | 0.00 | 55 | 1015.5 |
| 20260503013031 | 42 | 271 | 2.0 | 5.0 | 0.00 | 0.00 | 0.00 | 54 | 1015.5 |
| 20260503012507 | 42 | 247 | 1.0 | 7.0 | 0.00 | 0.00 | 0.00 | 54 | 1015.6 |
| 20260503012006 | 42 | 250 | 1.0 | 7.0 | 0.00 | 0.00 | 0.00 | 53 | 1015.6 |
| 20260503011516 | 43 | 268 | 3.0 | 8.0 | 0.00 | 0.00 | 0.00 | 52 | 1015.6 |
| 20260503011011 | 43 | 255 | 3.0 | 8.0 | 0.00 | 0.00 | 0.00 | 50 | 1015.6 |
| 20260503010507 | 43 | 265 | 3.0 | 7.0 | 0.00 | 0.00 | 0.00 | 50 | 1015.6 |
| 20260503010016 | 44 | 268 | 4.0 | 8.0 | 0.00 | 0.00 | 0.00 | 49 | 1015.5 |
| 20260503005504 | 44 | 225 | 4.0 | 8.0 | 0.00 | 0.00 | 0.00 | 49 | 1015.5 |
| 20260503005003 | 44 | 241 | 3.0 | 10.0 | 0.00 | 0.00 | 0.00 | 48 | 1015.4 |
| 20260503004512 | 44 | 207 | 3.0 | 10.0 | 0.00 | 0.00 | 0.00 | 47 | 1015.5 |
| 20260503004003 | 45 | 228 | 4.0 | 9.0 | 0.00 | 0.00 | 0.00 | 46 | 1015.5 |
| 20260503003506 | 45 | 237 | 3.0 | 9.0 | 0.00 | 0.00 | 0.00 | 46 | 1015.5 |
| 20260503003017 | 45 | 240 | 6.0 | 9.0 | 0.00 | 0.00 | 0.00 | 45 | 1015.5 |
| 20260503002505 | 46 | 265 | 3.0 | 9.0 | 0.00 | 0.00 | 0.00 | 45 | 1015.4 |
| 20260503002007 | 46 | 261 | 3.0 | 8.0 | 0.00 | 0.00 | 0.00 | 44 | 1015.4 |
| 20260503001526 | 46 | 226 | 5.0 | 9.0 | 0.00 | 0.00 | 0.00 | 43 | 1015.4 |
| 20260503001012 | 47 | 250 | 2.0 | 9.0 | 0.00 | 0.00 | 0.00 | 43 | 1015.4 |
| 20260503000504 | 47 | 259 | 2.0 | 10.0 | 0.00 | 0.00 | 0.00 | 42 | 1015.5 |
| 20260503000020 | 47 | 247 | 5.0 | 10.0 | 0.00 | 0.00 | 0.00 | 41 | 1015.5 |
| 20260502235507 | 47 | 252 | 4.0 | 10.0 | 0.00 | 0.00 | 0.00 | 41 | 1015.5 |
| 20260502235004 | 47 | 255 | 5.0 | 12.0 | 0.00 | 0.00 | 0.00 | 42 | 1015.6 |
| 20260502234520 | 48 | 259 | 7.0 | 12.0 | 0.00 | 0.00 | 0.00 | 41 | 1015.6 |
| 20260502234006 | 48 | 241 | 6.0 | 12.0 | 0.00 | 0.00 | 0.00 | 41 | 1015.6 |
| 20260502233507 | 48 | 277 | 5.0 | 12.0 | 0.00 | 0.00 | 0.00 | 39 | 1015.6 |
| 20260502233018 | 49 | 278 | 6.0 | 10.0 | 0.00 | 0.00 | 0.00 | 40 | 1015.6 |
| 20260502232509 | 49 | 239 | 4.0 | 11.0 | 0.00 | 0.00 | 0.00 | 40 | 1015.6 |
| 20260502232006 | 49 | 288 | 5.0 | 13.0 | 0.00 | 0.00 | 0.00 | 39 | 1015.6 |
| 20260502231007 | 49 | 277 | 6.0 | 14.0 | 0.00 | 0.00 | 0.00 | 38 | 1015.7 |
| 20260502230507 | 49 | 326 | 8.0 | 14.0 | 0.00 | 0.00 | 0.00 | 37 | 1015.7 |
| 20260502230025 | 49 | 234 | 6.0 | 11.0 | 0.00 | 0.00 | 0.00 | 39 | 1015.7 |
| 20260502225504 | 49 | 209 | 4.0 | 14.0 | 0.00 | 0.00 | 0.00 | 40 | 1015.7 |
| 20260502224525 | 50 | 271 | 7.0 | 13.0 | 0.00 | 0.00 | 0.00 | 37 | 1015.8 |
| 20260502224004 | 49 | 309 | 5.0 | 13.0 | 0.00 | 0.00 | 0.00 | 38 | 1015.8 |
| 20260502223508 | 49 | 264 | 3.0 | 14.0 | 0.00 | 0.00 | 0.00 | 37 | 1015.8 |
| 20260502223010 | 50 | 352 | 8.0 | 14.0 | 0.00 | 0.00 | 0.00 | 37 | 1015.8 |
| 20260502222505 | 49 | 261 | 5.0 | 12.0 | 0.00 | 0.00 | 0.00 | 39 | 1015.8 |
| 20260502222004 | 50 | 300 | 6.0 | 15.0 | 0.00 | 0.00 | 0.00 | 36 | 1015.9 |
| 20260502221519 | 50 | 271 | 7.0 | 15.0 | 0.00 | 0.00 | 0.00 | 39 | 1015.9 |
| 20260502221007 | 50 | 294 | 7.0 | 14.0 | 0.00 | 0.00 | 0.00 | 40 | 1015.9 |
| 20260502220509 | 49 | 294 | 6.0 | 14.0 | 0.00 | 0.00 | 0.00 | 38 | 1016.0 |
| 20260502220020 | 49 | 254 | 8.0 | 17.0 | 0.00 | 0.00 | 0.00 | 37 | 1015.9 |
| 20260502215508 | 49 | 247 | 9.0 | 17.0 | 0.00 | 0.00 | 0.00 | 38 | 1016.0 |
| 20260502215009 | 49 | 210 | 6.0 | 14.0 | 0.00 | 0.00 | 0.00 | 39 | 1016.0 |
| 20260502213510 | 49 | 248 | 7.0 | 14.0 | 0.00 | 0.00 | 0.00 | 38 | 1016.0 |
| 20260502213027 | 50 | 236 | 8.0 | 15.0 | 0.00 | 0.00 | 0.00 | 37 | 1016.1 |
| 20260502212505 | 49 | 207 | 5.0 | 17.0 | 0.00 | 0.00 | 0.00 | 42 | 1016.1 |
| 20260502212008 | 49 | 255 | 5.0 | 17.0 | 0.00 | 0.00 | 0.00 | 42 | 1016.1 |
| 20260502211514 | 49 | 227 | 11.0 | 17.0 | 0.00 | 0.00 | 0.00 | 39 | 1016.0 |
| 20260502211003 | 49 | 210 | 5.0 | 16.0 | 0.00 | 0.00 | 0.00 | 41 | 1016.2 |
| 20260502210509 | 49 | 205 | 8.0 | 16.0 | 0.00 | 0.00 | 0.00 | 40 | 1016.1 |
| 20260502210018 | 49 | 286 | 6.0 | 14.0 | 0.00 | 0.00 | 0.00 | 41 | 1016.2 |
| 20260502205509 | 49 | 244 | 4.0 | 15.0 | 0.00 | 0.00 | 0.00 | 40 | 1016.2 |
| 20260502205008 | 49 | 210 | 7.0 | 14.0 | 0.00 | 0.00 | 0.00 | 42 | 1016.2 |
| 20260502204526 | 49 | 252 | 8.0 | 14.0 | 0.00 | 0.00 | 0.00 | 42 | 1016.3 |
| 20260502204007 | 48 | 192 | 7.0 | 14.0 | 0.00 | 0.00 | 0.00 | 42 | 1016.3 |
| 20260502203503 | 49 | 227 | 7.0 | 16.0 | 0.00 | 0.00 | 0.00 | 42 | 1016.3 |
| 20260502202013 | 49 | 242 | 7.0 | 15.0 | 0.00 | 0.00 | 0.00 | 42 | 1016.5 |
| 20260502201516 | 49 | 194 | 4.0 | 15.0 | 0.00 | 0.00 | 0.00 | 43 | 1016.4 |
| 20260502201014 | 48 | 329 | 5.0 | 17.0 | 0.00 | 0.00 | 0.00 | 45 | 1016.5 |
| 20260502200509 | 49 | 355 | 8.0 | 17.0 | 0.00 | 0.00 | 0.00 | 44 | 1016.6 |
| 20260502200016 | 49 | 271 | 7.0 | 16.0 | 0.00 | 0.00 | 0.00 | 43 | 1016.5 |
| 20260502195508 | 49 | 267 | 8.0 | 16.0 | 0.00 | 0.00 | 0.00 | 44 | 1016.6 |
| 20260502195006 | 49 | 246 | 8.0 | 19.0 | 0.00 | 0.00 | 0.00 | 44 | 1016.7 |
| 20260502194523 | 49 | 244 | 7.0 | 19.0 | 0.00 | 0.00 | 0.00 | 48 | 1016.8 |
| 20260502194003 | 48 | 263 | 8.0 | 15.0 | 0.00 | 0.00 | 0.00 | 45 | 1016.9 |
| 20260502193507 | 49 | 277 | 6.0 | 15.0 | 0.00 | 0.00 | 0.00 | 43 | 1017.0 |
| 20260502193026 | 49 | 303 | 6.0 | 15.0 | 0.00 | 0.00 | 0.00 | 45 | 1016.9 |
| 20260502192508 | 49 | 294 | 8.0 | 15.0 | 0.00 | 0.00 | 0.00 | 45 | 1017.0 |
| 20260502192012 | 49 | 252 | 8.0 | 15.0 | 0.00 | 0.00 | 0.00 | 48 | 1017.1 |
| 20260502191528 | 49 | 296 | 7.0 | 14.0 | 0.00 | 0.00 | 0.00 | 48 | 1017.0 |
| 20260502191012 | 48 | 261 | 5.0 | 17.0 | 0.00 | 0.00 | 0.00 | 48 | 1017.1 |
| 20260502190511 | 47 | 286 | 9.0 | 17.0 | 0.00 | 0.00 | 0.00 | 48 | 1017.2 |
| 20260502190027 | 46 | 323 | 10.0 | 16.0 | 0.00 | 0.00 | 0.00 | 48 | 1017.3 |
| 20260502185508 | 47 | 228 | 7.0 | 17.0 | 0.00 | 0.00 | 0.00 | 49 | 1017.2 |
| 20260502185007 | 47 | 302 | 10.0 | 17.0 | 0.00 | 0.00 | 0.00 | 47 | 1017.2 |
| 20260502184519 | 47 | 316 | 7.0 | 17.0 | 0.00 | 0.00 | 0.00 | 48 | 1017.3 |
| 20260502184009 | 47 | 248 | 7.0 | 17.0 | 0.00 | 0.00 | 0.00 | 47 | 1017.3 |
| 20260502183508 | 47 | 280 | 9.0 | 14.0 | 0.00 | 0.00 | 0.00 | 48 | 1017.4 |
| 20260502183026 | 46 | 259 | 5.0 | 16.0 | 0.00 | 0.00 | 0.00 | 49 | 1017.4 |
| 20260502182507 | 46 | 329 | 6.0 | 16.0 | 0.00 | 0.00 | 0.00 | 47 | 1017.4 |
| 20260502182011 | 46 | 271 | 10.0 | 16.0 | 0.00 | 0.00 | 0.00 | 48 | 1017.4 |
| 20260502181524 | 47 | 317 | 7.0 | 15.0 | 0.00 | 0.00 | 0.00 | 46 | 1017.3 |
| 20260502181007 | 47 | 254 | 6.0 | 15.0 | 0.00 | 0.00 | 0.00 | 48 | 1017.5 |
| 20260502170507 | 45 | 266 | 7.0 | 20.0 | 0.00 | 0.00 | 0.00 | 50 | 1017.9 |
| 20260502164007 | 44 | 302 | 6.0 | 10.0 | 0.00 | 0.00 | 0.00 | 52 | 1018.2 |
| 20260502163502 | 44 | 284 | 4.0 | 11.0 | 0.00 | 0.00 | 0.00 | 51 | 1018.3 |
| 20260502162508 | 44 | 306 | 2.0 | 16.0 | 0.00 | 0.00 | 0.00 | 53 | 1018.3 |
| 20260502162003 | 44 | 303 | 5.0 | 16.0 | 0.00 | 0.00 | 0.00 | 52 | 1018.3 |
| 20260502161507 | 45 | 248 | 7.0 | 17.0 | 0.00 | 0.00 | 0.00 | 53 | 1018.4 |
| 20260502161003 | 45 | 312 | 5.0 | 17.0 | 0.00 | 0.00 | 0.00 | 54 | 1018.4 |
| 20260502160505 | 44 | 352 | 6.0 | 15.0 | 0.00 | 0.00 | 0.00 | 53 | 1018.4 |
| 20260502151520 | 46 | 317 | 7.0 | 14.0 | 0.00 | 0.00 | 0.00 | 52 | 1018.3 |
| 20260502151008 | 45 | 360 | 4.0 | 11.0 | 0.00 | 0.00 | 0.00 | 52 | 1018.3 |
| 20260502150503 | 44 | 298 | 3.0 | 9.0 | 0.00 | 0.00 | 0.00 | 53 | 1018.4 |
| 20260502130508 | 39 | 308 | 4.0 | 14.0 | 0.00 | 0.00 | 0.00 | 68 | 1018.7 |
| 20260502123507 | 38 | 329 | 4.0 | 10.0 | 0.00 | 0.00 | 0.00 | 77 | 1018.7 |
| 20260502123012 | 38 | 326 | 5.0 | 9.0 | 0.00 | 0.00 | 0.00 | 77 | 1018.8 |
| 20260502122504 | 38 | 13 | 2.0 | 8.0 | 0.00 | 0.00 | 0.00 | 79 | 1018.8 |
| 20260502122010 | 37 | 341 | 2.0 | 8.0 | 0.00 | 0.00 | 0.00 | 79 | 1018.8 |
| 20260502121518 | 37 | 323 | 3.0 | 8.0 | 0.00 | 0.00 | 0.00 | 79 | 1018.8 |
| 20260502121007 | 36 | 341 | 2.0 | 9.0 | 0.00 | 0.00 | 0.00 | 80 | 1018.8 |
| 20260502120504 | 36 | 309 | 3.0 | 9.0 | 0.00 | 0.00 | 0.00 | 81 | 1018.7 |
| 20260502115510 | 34 | 5 | 3.0 | 8.0 | 0.00 | 0.00 | 0.00 | 83 | 1018.7 |
| 20260502115008 | 34 | 330 | 2.0 | 5.0 | 0.00 | 0.00 | 0.00 | 85 | 1018.7 |
| 20260502114518 | 33 | 326 | 1.0 | 5.0 | 0.00 | 0.00 | 0.00 | 85 | 1018.7 |
| 20260502114008 | 33 | 355 | 1.0 | 3.0 | 0.00 | 0.00 | 0.00 | 87 | 1018.6 |
| 20260502113506 | 32 | 317 | 1.0 | 3.0 | 0.00 | 0.00 | 0.00 | 88 | 1018.5 |
| 20260502113014 | 31 | 342 | 1.0 | 3.0 | 0.00 | 0.00 | 0.00 | 88 | 1018.5 |
| 20260502112506 | 30 | 342 | 1.0 | 3.0 | 0.00 | 0.00 | 0.00 | 88 | 1018.5 |
| 20260502112003 | 29 | 312 | 0.0 | 2.0 | 0.00 | 0.00 | 0.00 | 88 | 1018.5 |
| 20260502111517 | 29 | 302 | 0.0 | 1.0 | 0.00 | 0.00 | 0.00 | 88 | 1018.4 |
| 20260502111004 | 29 | 302 | 0.0 | 1.0 | 0.00 | 0.00 | 0.00 | 88 | 1018.5 |
| 20260502110502 | 29 | 286 | 0.0 | 0.0 | 0.00 | 0.00 | 0.00 | 87 | 1018.6 |
| 20260502110004 | 29 | 285 | 0.0 | 0.0 | 0.00 | 0.00 | 0.00 | 87 | 1018.7 |
| 20260502105502 | 29 | 285 | 0.0 | 0.0 | 0.00 | 0.00 | 0.00 | 87 | 1018.6 |
| 20260502105003 | 29 | 285 | 0.0 | 0.0 | 0.00 | 0.00 | 0.00 | 87 | 1018.5 |
| 20260502104503 | 29 | 285 | 0.0 | 0.0 | 0.00 | 0.00 | 0.00 | 87 | 1018.4 |
| 20260502104003 | 29 | 285 | 0.0 | 0.0 | 0.00 | 0.00 | 0.00 | 87 | 1018.4 |
| 20260502103503 | 29 | 285 | 0.0 | 0.0 | 0.00 | 0.00 | 0.00 | 87 | 1018.4 |
| 20260502103010 | 29 | 285 | 0.0 | 0.0 | 0.00 | 0.00 | 0.00 | 86 | 1018.3 |
| 20260502102503 | 29 | 285 | 0.0 | 0.0 | 0.00 | 0.00 | 0.00 | 86 | 1018.3 |
| 20260502102003 | 29 | 285 | 0.0 | 0.0 | 0.00 | 0.00 | 0.00 | 86 | 1018.3 |
| 20260502101503 | 29 | 285 | 0.0 | 0.0 | 0.00 | 0.00 | 0.00 | 86 | 1018.1 |
| 20260502101002 | 29 | 285 | 0.0 | 0.0 | 0.00 | 0.00 | 0.00 | 86 | 1018.2 |
| 20260502100502 | 29 | 285 | 0.0 | 1.0 | 0.00 | 0.00 | 0.00 | 86 | 1018.2 |
| 20260502091508 | 30 | 313 | 0.0 | 0.0 | 0.00 | 0.00 | 0.00 | 83 | 1018.1 |
| 20260502091003 | 31 | 313 | 0.0 | 0.0 | 0.00 | 0.00 | 0.00 | 83 | 1018.0 |
| 20260502090502 | 31 | 313 | 0.0 | 0.0 | 0.00 | 0.00 | 0.00 | 83 | 1018.0 |
| 20260502071503 | 36 | 328 | 3.0 | 4.0 | 0.00 | 0.00 | 0.00 | 72 | 1017.7 |
| 20260502071002 | 36 | 315 | 2.0 | 5.0 | 0.00 | 0.00 | 0.00 | 73 | 1017.7 |
| 20260502070504 | 36 | 335 | 2.0 | 5.0 | 0.00 | 0.00 | 0.00 | 72 | 1017.7 |
| 20260502065504 | 36 | 314 | 1.0 | 4.0 | 0.00 | 0.00 | 0.00 | 72 | 1017.8 |
| 20260502065007 | 36 | 308 | 2.0 | 4.0 | 0.00 | 0.00 | 0.00 | 72 | 1017.8 |
| 20260502064510 | 36 | 295 | 2.0 | 4.0 | 0.00 | 0.00 | 0.00 | 72 | 1017.9 |
| 20260502064004 | 36 | 326 | 1.0 | 5.0 | 0.00 | 0.00 | 0.00 | 73 | 1017.9 |
| 20260502063504 | 36 | 333 | 1.0 | 5.0 | 0.00 | 0.00 | 0.00 | 73 | 1018.0 |
| 20260502063011 | 36 | 330 | 1.0 | 3.0 | 0.00 | 0.00 | 0.00 | 72 | 1018.0 |
| 20260502062504 | 36 | 313 | 0.0 | 3.0 | 0.00 | 0.00 | 0.00 | 72 | 1018.0 |
| 20260502062004 | 36 | 322 | 0.0 | 0.0 | 0.00 | 0.00 | 0.00 | 72 | 1018.0 |
| 20260502061512 | 36 | 308 | 0.0 | 0.0 | 0.00 | 0.00 | 0.00 | 73 | 1018.1 |
| 20260502061002 | 36 | 292 | 0.0 | 0.0 | 0.00 | 0.00 | 0.00 | 73 | 1018.1 |
| 20260502060502 | 36 | 299 | 0.0 | 1.0 | 0.00 | 0.00 | 0.00 | 73 | 1018.0 |
| 20260502060010 | 36 | 319 | 0.0 | 2.0 | 0.00 | 0.00 | 0.00 | 73 | 1018.0 |
| 20260502055504 | 35 | 319 | 0.0 | 2.0 | 0.00 | 0.00 | 0.00 | 74 | 1018.0 |
| 20260502055004 | 36 | 319 | 0.0 | 2.0 | 0.00 | 0.00 | 0.00 | 72 | 1018.0 |
| 20260502054515 | 36 | 319 | 0.0 | 2.0 | 0.00 | 0.00 | 0.00 | 72 | 1018.1 |
| 20260502054003 | 36 | 319 | 1.0 | 3.0 | 0.00 | 0.00 | 0.00 | 71 | 1018.0 |
| 20260502053506 | 36 | 319 | 0.0 | 3.0 | 0.00 | 0.00 | 0.00 | 71 | 1018.0 |
| 20260502053016 | 36 | 313 | 1.0 | 2.0 | 0.00 | 0.00 | 0.00 | 71 | 1018.0 |
| 20260502052504 | 36 | 289 | 1.0 | 4.0 | 0.00 | 0.00 | 0.00 | 71 | 1018.0 |
| 20260502052004 | 36 | 283 | 1.0 | 4.0 | 0.00 | 0.00 | 0.00 | 70 | 1018.0 |
| 20260502051518 | 36 | 304 | 1.0 | 3.0 | 0.00 | 0.00 | 0.00 | 70 | 1018.0 |
| 20260502050505 | 36 | 305 | 1.0 | 3.0 | 0.00 | 0.00 | 0.00 | 70 | 1018.0 |